When you browse on this site, cookies collect data to enhance your experience and personalize the content and advertising you see.
Visit our Privacy Policy to learn more. By continuing to use the site, you agree to this use of cookies and data.
  • In Deutschland
  • Länderverzeichnis
  • Für 7 Tage
  • Wassertemperatur
  • Satellitenkarten
  • Wetterkarte
  • Widgets
  • user-avatar
    Anmelden

    Stündliche Wetter Mykhailopil'

    Heute, 21 Februar, Donnerstag

    Zeit Temperatur Niederschläge Wind Luftdruck Luftfeuchtigkeit
    00:00 +3°C° 0 mm 4 m/S 758 mmHg 80%
    01:00 +3°C° 0 mm 4 m/S 759 mmHg 81%
    02:00 +3°C° 0 mm 4 m/S 759 mmHg 82%
    03:00 +1°C° 0 mm 4 m/S 759 mmHg 82%
    04:00 +1°C° 0 mm 5 m/S 759 mmHg 82%
    05:00 +1°C° 0 mm 5 m/S 759 mmHg 82%
    06:00 +1°C° 0 mm 5 m/S 759 mmHg 81%
    07:00 +1°C° 0 mm 6 m/S 759 mmHg 80%
    08:00 +2°C° 0 mm 6 m/S 759 mmHg 78%
    09:00 +3°C° 0 mm 7 m/S 760 mmHg 71%
    10:00 +4°C° 0 mm 7 m/S 760 mmHg 63%
    11:00 +5°C° 0 mm 8 m/S 760 mmHg 56%
    12:00 +5°C° 0 mm 8 m/S 760 mmHg 53%
    13:00 +5°C° 0 mm 8 m/S 760 mmHg 49%
    14:00 +6°C° 0 mm 9 m/S 760 mmHg 46%
    15:00 +5°C° 0 mm 8 m/S 760 mmHg 50%
    16:00 +5°C° 0 mm 7 m/S 760 mmHg 53%
    17:00 +4°C° 0 mm 6 m/S 760 mmHg 56%
    18:00 +5°C° 0 mm 5 m/S 760 mmHg 61%
    19:00 +3°C° 0 mm 5 m/S 760 mmHg 65%
    20:00 +3°C° 0 mm 4 m/S 760 mmHg 70%
    21:00 +3°C° 0 mm 3 m/S 760 mmHg 73%
    22:00 +3°C° 0 mm 3 m/S 760 mmHg 76%
    23:00 +2°C° 0 mm 3 m/S 760 mmHg 79%

    Morgen, 22 Februar, Freitag

    Zeit Temperatur Niederschläge Wind Luftdruck Luftfeuchtigkeit
    00:00 +3°C° 0 mm 2 m/S 760 mmHg 82%
    01:00 +4°C° 0 mm 2 m/S 760 mmHg 85%
    02:00 +4°C° 0 mm 2 m/S 760 mmHg 88%
    03:00 +4°C° 0.3 mm 2 m/S 759 mmHg 89%
    04:00 +4°C° 0.3 mm 2 m/S 759 mmHg 89%
    05:00 +4°C° 0.3 mm 2 m/S 758 mmHg 90%
    06:00 +4°C° 0.7 mm 2 m/S 758 mmHg 88%
    07:00 +4°C° 0.7 mm 2 m/S 757 mmHg 87%
    08:00 +4°C° 0.7 mm 2 m/S 757 mmHg 85%
    09:00 +4°C° 0.8 mm 2 m/S 757 mmHg 86%
    10:00 +2°C° 0.8 mm 3 m/S 757 mmHg 86%
    11:00 +1°C° 0.8 mm 4 m/S 757 mmHg 87%
    12:00 -1°C° 0.8 mm 5 m/S 757 mmHg 88%
    13:00 -3°C° 0.8 mm 7 m/S 757 mmHg 89%
    14:00 -6°C° 0.8 mm 9 m/S 757 mmHg 90%
    15:00 -8°C° 0.6 mm 9 m/S 758 mmHg 88%
    16:00 -8°C° 0.6 mm 9 m/S 759 mmHg 86%
    17:00 -9°C° 0.6 mm 9 m/S 760 mmHg 84%
    18:00 -10°C° 0 mm 8 m/S 761 mmHg 81%
    19:00 -11°C° 0 mm 8 m/S 762 mmHg 77%
    20:00 -11°C° 0 mm 7 m/S 762 mmHg 74%
    21:00 -12°C° 0 mm 7 m/S 763 mmHg 74%
    22:00 -12°C° 0 mm 7 m/S 763 mmHg 74%
    23:00 -12°C° 0 mm 6 m/S 764 mmHg 75%

    übermorgen, 23 Februar, Samstag

    Zeit Temperatur Niederschläge Wind Luftdruck Luftfeuchtigkeit
    00:00 -12°C° 0 mm 6 m/S 764 mmHg 75%
    01:00 -12°C° 0 mm 6 m/S 764 mmHg 75%
    02:00 -12°C° 0 mm 6 m/S 765 mmHg 75%
    03:00 -12°C° 0 mm 6 m/S 765 mmHg 74%
    04:00 -13°C° 0 mm 7 m/S 765 mmHg 74%
    05:00 -13°C° 0 mm 7 m/S 765 mmHg 74%
    06:00 -13°C° 0 mm 7 m/S 766 mmHg 74%
    07:00 -13°C° 0 mm 7 m/S 766 mmHg 74%
    08:00 -12°C° 0 mm 8 m/S 767 mmHg 73%
    09:00 -12°C° 0 mm 8 m/S 767 mmHg 71%
    10:00 -11°C° 0 mm 8 m/S 767 mmHg 68%
    11:00 -10°C° 0 mm 8 m/S 768 mmHg 66%
    12:00 -10°C° 0 mm 8 m/S 768 mmHg 66%
    13:00 -10°C° 0 mm 8 m/S 768 mmHg 66%
    14:00 -10°C° 0 mm 8 m/S 768 mmHg 66%
    15:00 -9°C° 0 mm 7 m/S 768 mmHg 68%
    16:00 -9°C° 0 mm 7 m/S 768 mmHg 69%
    17:00 -9°C° 0 mm 7 m/S 769 mmHg 71%
    18:00 -9°C° 0 mm 7 m/S 769 mmHg 72%
    19:00 -10°C° 0 mm 6 m/S 769 mmHg 73%
    20:00 -10°C° 0 mm 6 m/S 770 mmHg 74%
    21:00 -11°C° 0 mm 6 m/S 770 mmHg 76%
    22:00 -11°C° 0 mm 5 m/S 770 mmHg 77%
    23:00 -11°C° 0 mm 5 m/S 770 mmHg 78%

    24 Februar, Sonntag

    Zeit Temperatur Niederschläge Wind Luftdruck Luftfeuchtigkeit
    00:00 -11°C° 0 mm 5 m/S 770 mmHg 79%
    01:00 -12°C° 0 mm 5 m/S 770 mmHg 80%
    02:00 -12°C° 0 mm 5 m/S 770 mmHg 81%
    03:00 -12°C° 0 mm 5 m/S 769 mmHg 81%
    04:00 -12°C° 0 mm 5 m/S 769 mmHg 82%
    05:00 -12°C° 0 mm 5 m/S 769 mmHg 82%
    06:00 -12°C° 0 mm 5 m/S 769 mmHg 82%
    07:00 -12°C° 0 mm 5 m/S 769 mmHg 81%
    08:00 -12°C° 0 mm 5 m/S 770 mmHg 80%
    09:00 -11°C° 0 mm 5 m/S 770 mmHg 78%
    10:00 -10°C° 0 mm 5 m/S 770 mmHg 75%
    11:00 -8°C° 0 mm 5 m/S 770 mmHg 73%
    12:00 -8°C° 0 mm 5 m/S 769 mmHg 72%
    13:00 -7°C° 0 mm 5 m/S 769 mmHg 72%
    14:00 -7°C° 0 mm 5 m/S 768 mmHg 72%
    15:00 -7°C° 0 mm 5 m/S 768 mmHg 72%
    16:00 -7°C° 0 mm 4 m/S 768 mmHg 72%
    17:00 -7°C° 0 mm 4 m/S 768 mmHg 72%
    18:00 -6°C° 0 mm 3 m/S 768 mmHg 75%
    19:00 -7°C° 0 mm 3 m/S 768 mmHg 78%
    20:00 -7°C° 0 mm 2 m/S 768 mmHg 82%
    21:00 -7°C° 0 mm 2 m/S 768 mmHg 82%
    22:00 -7°C° 0 mm 2 m/S 767 mmHg 83%
    23:00 -7°C° 0 mm 2 m/S 767 mmHg 83%

    25 Februar, Montag

    Zeit Temperatur Niederschläge Wind Luftdruck Luftfeuchtigkeit
    00:00 -7°C° 0 mm 2 m/S 767 mmHg 85%
    01:00 -6°C° 0 mm 2 m/S 766 mmHg 87%
    02:00 -6°C° 0 mm 2 m/S 766 mmHg 89%
    03:00 -6°C° 0 mm 2 m/S 765 mmHg 90%
    04:00 -6°C° 0 mm 2 m/S 765 mmHg 91%
    05:00 -6°C° 0 mm 2 m/S 764 mmHg 92%
    06:00 -5°C° 0.1 mm 2 m/S 764 mmHg 91%
    07:00 -5°C° 0.1 mm 2 m/S 764 mmHg 91%
    08:00 -4°C° 0.1 mm 2 m/S 763 mmHg 90%
    09:00 -4°C° 0.1 mm 2 m/S 763 mmHg 87%
    10:00 -3°C° 0.1 mm 2 m/S 763 mmHg 84%
    11:00 -2°C° 0.1 mm 2 m/S 762 mmHg 80%
    12:00 -2°C° 0.1 mm 2 m/S 762 mmHg 79%
    13:00 -1°C° 0.1 mm 2 m/S 761 mmHg 78%
    14:00 -1°C° 0.1 mm 2 m/S 761 mmHg 77%
    15:00 -1°C° 0.1 mm 2 m/S 760 mmHg 79%
    16:00 -1°C° 0.1 mm 2 m/S 760 mmHg 82%
    17:00 -1°C° 0.1 mm 2 m/S 760 mmHg 84%
    18:00 -1°C° 0 mm 2 m/S 759 mmHg 87%
    19:00 -1°C° 0 mm 2 m/S 759 mmHg 89%
    20:00 -2°C° 0 mm 3 m/S 759 mmHg 92%
    21:00 -2°C° 0.2 mm 4 m/S 759 mmHg 91%
    22:00 -2°C° 0.2 mm 5 m/S 759 mmHg 91%
    23:00 -3°C° 0.2 mm 6 m/S 759 mmHg 90%

    26 Februar, Dienstag

    Zeit Temperatur Niederschläge Wind Luftdruck Luftfeuchtigkeit
    00:00 -3°C° 0 mm 6 m/S 758 mmHg 87%
    01:00 -3°C° 0 mm 7 m/S 758 mmHg 85%
    02:00 -4°C° 0 mm 8 m/S 758 mmHg 82%
    03:00 -5°C° 0 mm 8 m/S 758 mmHg 82%
    04:00 -5°C° 0 mm 8 m/S 758 mmHg 83%
    05:00 -4°C° 0 mm 7 m/S 758 mmHg 84%
    06:00 -4°C° 0 mm 7 m/S 758 mmHg 84%
    07:00 -4°C° 0 mm 7 m/S 758 mmHg 84%
    08:00 -4°C° 0 mm 6 m/S 758 mmHg 84%
    09:00 -3°C° 0 mm 6 m/S 758 mmHg 83%
    10:00 -2°C° 0 mm 6 m/S 757 mmHg 81%
    11:00 -1°C° 0 mm 6 m/S 757 mmHg 80%
    12:00 -1°C° 0.1 mm 6 m/S 756 mmHg 81%
    13:00 -1°C° 0.1 mm 6 m/S 756 mmHg 82%
    14:00 +1°C° 0.1 mm 6 m/S 756 mmHg 82%
    15:00 0°C° 0.1 mm 5 m/S 755 mmHg 83%
    16:00 0°C° 0.1 mm 5 m/S 755 mmHg 83%
    17:00 0°C° 0.1 mm 5 m/S 755 mmHg 83%
    18:00 -1°C° 0 mm 5 m/S 755 mmHg 84%
    19:00 -1°C° 0 mm 5 m/S 754 mmHg 86%
    20:00 -2°C° 0 mm 4 m/S 754 mmHg 87%
    21:00 -2°C° 0 mm 4 m/S 753 mmHg 88%
    22:00 -2°C° 0 mm 4 m/S 753 mmHg 89%
    23:00 -2°C° 0 mm 4 m/S 752 mmHg 89%
    Mehr zeigen